AUA50U LIML-LOWW

Flight info

Callsign AUA50U
Flight time N/A
Altitude 34000
Route NESTI DCT ARALD DCT ABTAN ABTAN2W
Aircraft B736/M-SDE2E3FGHIRWXY/LB1

Departure

Time 2026-04-30 19:48
Airport Milano Linate Airport (LIML)

Arrival

Time N/A
Airport Vienna International Airport (LOWW)
Time Latitude Longitude Altitude Speed Heading
2026-04-30 19:30 45.45729 9.28078 359 ft 0 kts 90°
2026-04-30 19:44 45.45729 9.28091 359 ft 4 kts 90°
2026-04-30 19:44 45.45725 9.28142 359 ft 6 kts 120°
2026-04-30 19:45 45.45688 9.28159 361 ft 6 kts 178°
2026-04-30 19:45 45.45643 9.28159 359 ft 8 kts 180°
2026-04-30 19:45 45.45572 9.28159 362 ft 12 kts 180°
2026-04-30 19:45 45.45477 9.28151 359 ft 12 kts 204°
2026-04-30 19:46 45.45457 9.28038 359 ft 12 kts 271°
2026-04-30 19:46 45.45458 9.27920 361 ft 12 kts 270°
2026-04-30 19:46 45.45452 9.27805 359 ft 12 kts 253°
2026-04-30 19:46 45.45411 9.27710 360 ft 11 kts 246°
2026-04-30 19:47 45.45405 9.27612 361 ft 10 kts 217°
2026-04-30 19:47 45.45360 9.27611 361 ft 10 kts 171°
2026-04-30 19:47 45.45270 9.27625 357 ft 13 kts 175°
2026-04-30 19:47 45.44891 9.27667 361 ft 98 kts 175°
2026-04-30 19:48 45.43966 9.27746 473 ft 156 kts 176°
2026-04-30 19:48 45.42871 9.27796 1349 ft 154 kts 173°
2026-04-30 19:48 45.41828 9.27910 2288 ft 154 kts 172°
2026-04-30 19:48 45.40688 9.28058 2820 ft 180 kts 172°
2026-04-30 19:49 45.39321 9.28228 3216 ft 209 kts 173°
2026-04-30 19:49 45.36269 9.28583 4686 ft 229 kts 173°
2026-04-30 19:49 45.34669 9.28766 5588 ft 232 kts 174°
2026-04-30 19:50 45.33057 9.28942 6452 ft 234 kts 174°
2026-04-30 19:50 45.31376 9.29124 7112 ft 253 kts 174°
2026-04-30 19:50 45.29575 9.29319 7916 ft 263 kts 174°
2026-04-30 19:50 45.27755 9.29514 8988 ft 263 kts 174°
2026-04-30 19:51 45.25905 9.29713 9945 ft 269 kts 174°
2026-04-30 19:51 45.24027 9.29927 10838 ft 273 kts 171°
2026-04-30 19:51 45.22245 9.30852 11617 ft 277 kts 141°
2026-04-30 19:51 45.20988 9.32906 12334 ft 284 kts 113°
2026-04-30 19:52 45.20586 9.35676 12874 ft 294 kts 85°
2026-04-30 19:52 45.20742 9.38593 13737 ft 300 kts 82°
2026-04-30 19:52 45.20931 9.41566 14619 ft 304 kts 81°
2026-04-30 19:52 45.21107 9.44532 15505 ft 308 kts 82°
2026-04-30 19:53 45.21277 9.47626 16402 ft 313 kts 82°
2026-04-30 19:53 45.21593 9.50676 17280 ft 313 kts 68°
2026-04-30 19:53 45.22684 9.53307 18149 ft 311 kts 44°
2026-04-30 19:53 45.24434 9.55214 18498 ft 330 kts 24°
2026-04-30 19:54 45.26636 9.56280 18808 ft 347 kts 15°
2026-04-30 19:54 45.28993 9.57191 19477 ft 353 kts 14°
2026-04-30 19:54 45.31375 9.58075 20338 ft 354 kts 14°
2026-04-30 19:54 45.33762 9.58965 21181 ft 356 kts 14°
2026-04-30 19:55 45.36164 9.59876 21971 ft 359 kts 15°
2026-04-30 19:55 45.38587 9.60809 22754 ft 362 kts 15°
2026-04-30 19:55 45.41028 9.61759 23563 ft 365 kts 15°
2026-04-30 19:55 45.43492 9.62724 24252 ft 368 kts 15°
2026-04-30 19:56 45.45973 9.63698 24874 ft 372 kts 15°
2026-04-30 19:56 45.48483 9.64686 25495 ft 376 kts 15°
2026-04-30 19:56 45.51024 9.65686 26121 ft 380 kts 15°
2026-04-30 19:56 45.53580 9.66694 26792 ft 382 kts 15°
2026-04-30 19:57 45.56130 9.67699 27693 ft 379 kts 15°
2026-04-30 19:57 45.58694 9.68449 28585 ft 376 kts
2026-04-30 19:57 45.61291 9.68132 29427 ft 377 kts 349°
2026-04-30 19:57 45.63758 9.66847 30196 ft 381 kts 336°
2026-04-30 19:58 45.66137 9.65214 30854 ft 377 kts 344°
2026-04-30 19:58 45.68693 9.64597 31530 ft 371 kts
2026-04-30 19:58 45.71224 9.65098 32275 ft 367 kts 16°
2026-04-30 19:58 45.72791 9.65989 32707 ft 367 kts 26°
2026-04-30 19:59 45.74876 9.68118 33287 ft 371 kts 40°
2026-04-30 19:59 45.76505 9.71003 33862 ft 377 kts 57°
2026-04-30 19:59 45.78640 9.77978 34269 ft 388 kts 64°
2026-04-30 20:00 45.79601 9.81566 34254 ft 383 kts 64°
2026-04-30 20:00 45.81777 9.89772 34304 ft 378 kts 63°
2026-04-30 20:01 45.84323 9.99152 34283 ft 377 kts 63°
2026-04-30 20:01 45.86238 10.06146 34270 ft 376 kts 63°
2026-04-30 20:02 45.89102 10.16610 34278 ft 376 kts 63°
2026-04-30 20:03 45.91966 10.27112 34267 ft 377 kts 63°
2026-04-30 20:03 45.93875 10.34137 34285 ft 378 kts 63°
2026-04-30 20:04 45.95771 10.41138 34265 ft 379 kts 63°
2026-04-30 20:05 45.98630 10.51732 34266 ft 381 kts 63°
2026-04-30 20:05 45.99602 10.55332 34275 ft 392 kts 63°
2026-04-30 20:05 46.01628 10.62848 34281 ft 414 kts 64°
2026-04-30 20:06 46.03748 10.70760 34275 ft 432 kts 64°
2026-04-30 20:06 46.05932 10.78964 34297 ft 442 kts 64°
2026-04-30 20:07 46.08103 10.87171 34266 ft 436 kts 64°
2026-04-30 20:08 46.11311 10.99321 34275 ft 430 kts 64°